{"data":{"norad_id":63296,"epoch":"2026-09-22T22:14:53.601792Z","epoch_age_seconds":98879,"freshness":"FRESH","line1":"1 63296U 25055F   26265.92700928  .00006800  00000+0  33790-3 0  9999","line2":"2 63296  97.6647  46.7441 0012143 143.7802 216.4256 15.17932816 83829","mean_motion":15.17932816,"eccentricity":0.0012143,"inclination_deg":97.6647,"raan_deg":46.7441,"arg_perigee_deg":143.7802,"mean_anomaly_deg":216.4256,"bstar":0.0003379,"rev_number":8382,"period_min":94.865858674472,"perigee_km":503.72231901331,"apogee_km":520.45592216978,"semimajor_km":6890.2261205915,"source":"CELESTRAK","updated_at":"2026-09-23T09:00:21.957794Z"}}